[[{"header":{"parameterUnit":"m.s-1","parameterCategory":1,"la1":30.2991,"la2":30.254,"lo1":-89.0895,"lo2":-89.0444,"dy":0.0017,"dx":0.0017,"nx":28,"ny":28,"refTime":"2025-03-09T03:00:00:Z","depth":0,"parameterNumber":2,"parameterNumberName":"U-component_of_WINDS"},"data":[0,0,0,0,0,0,0,0,0,0,0,0,0,0,0,0,0,0,0,0,0,0,0,0,0,0,0,0,0,0,0,0,0,0,0,0,0,0,0,0,0,0,0,0,0,0,0,0,0,0,0,0,0,0,0,0,0,0,-2.3985,-2.3986,0,-2.4067,-2.4067,-2.4068,-2.4035,-2.4033,-2.4031,-2.403,-2.4115,-2.4119,-2.4123,0,0,0,0,0,0,0,0,0,0,0,0,0,-2.3803,-2.3807,-2.3985,-2.3986,-2.3987,-2.4066,-2.4068,-2.4069,-2.4036,-2.4033,-2.4031,-2.4029,-2.4114,-2.4119,-2.4123,0,0,0,0,0,0,0,0,0,0,0,0,0,-2.3883,-2.3808,-2.3985,-2.398,-2.3981,-2.4066,-2.4068,-2.4069,-2.4036,-2.4033,-2.403,-2.4028,-2.4112,-2.4118,-2.4124,-2.422,0,0,-2.4143,-2.4145,0,0,0,0,0,0,0,0,-2.3879,-2.389,-2.398,-2.3981,-2.3981,-2.4038,-2.4035,-2.412,-2.4037,-2.4015,-2.403,-2.4026,-2.4092,-2.4099,-2.4121,-2.4224,-2.4227,-2.4143,-2.4147,-2.415,-2.4151,0,0,0,0,0,0,0,-2.3873,-2.3886,-2.4017,-2.3981,-2.3982,-2.3975,-2.3983,-2.4051,-2.4069,-2.4017,-2.4015,-2.4025,-2.4092,-2.4115,-2.4123,-2.4229,-2.4143,-2.4149,-2.4152,-2.4155,-2.4414,-2.4417,0,0,0,0,0,0,-2.3867,-2.3882,-2.4015,-2.402,-2.3922,-2.398,-2.3989,-2.4023,-2.4068,-2.4072,-2.4027,-2.4023,-2.4106,-2.4116,-2.4126,-2.424,-2.415,-2.4155,-2.4159,-2.4411,-2.4415,-2.4418,0,0,0,0,0,0,-2.3864,-2.388,-2.4011,-2.395,-2.3967,-2.3987,-2.4024,-2.4026,-2.4049,-2.4076,-2.4079,-2.4048,-2.4104,-2.4117,-2.4196,-2.4243,-2.4158,-2.4164,-2.4407,-2.4412,-2.4416,-2.447,0,0,0,0,0,0,-2.3859,-2.3878,-2.3914,-2.3951,-2.397,-2.408,-2.4027,-2.4029,-2.406,-2.4055,-2.4096,-2.41,-2.4103,-2.4188,-2.4203,-2.425,-2.4168,-2.4403,-2.4409,-2.4415,-2.4464,-2.4476,-2.4487,0,0,0,0,0,-2.3852,-2.3927,-2.3916,-2.3933,-2.4015,-2.4083,-2.4094,-2.4095,-2.4063,-2.41,-2.4117,-2.4099,-2.4236,-2.4196,-2.4213,-2.4262,-2.44,-2.4407,-2.4414,-2.446,-2.4474,-2.4486,0,0,0,0,0,0,-2.3895,-2.3931,-2.392,-2.4009,-2.4043,-2.4077,-2.4123,-2.4111,-2.4155,-2.4149,-2.415,-2.4159,-2.4241,-2.426,-2.4215,-2.4357,-2.4313,-2.4324,-2.4342,-2.4356,-2.4367,-2.436,-2.4173,0,0,0,0,0,-2.3915,-2.3966,-2.3996,-2.4071,-2.4089,-2.4103,-2.4133,-2.4131,-2.4167,-2.4181,-2.4204,-2.424,-2.4291,-2.4325,-2.4373,-2.4468,-2.4476,-2.451,-2.4521,-2.453,-2.4539,-2.459,-2.4606,-2.4442,-2.4442,-2.4442,0,0,-2.3956,-2.3983,-2.4015,-2.408,-2.4107,-2.416,-2.4116,-2.4174,-2.4214,-2.419,-2.4266,-2.4284,-2.4325,-2.4412,-2.4451,-2.443,-2.4586,-2.4539,-2.4546,-2.455,-2.4599,-2.4615,-2.4628,-2.4447,-2.4446,-2.4445,0,0,-2.4059,-2.4084,-2.4149,-2.4177,-2.4217,-2.4226,-2.4242,-2.4278,-2.4289,-2.4365,-2.4348,-2.4396,-2.4485,-2.4514,-2.454,-2.4655,-2.4639,-2.4671,-2.4728,-2.4778,-2.4791,-2.4802,-2.4842,-2.4857,-2.468,-2.468,-2.468,0,-2.4105,-2.4184,-2.4185,-2.4245,-2.4274,-2.4255,-2.4321,-2.4348,-2.4402,-2.4423,-2.4398,-2.4508,-2.4534,-2.4628,-2.4655,-2.4678,-2.4696,-2.4665,-2.4789,-2.48,-2.4811,-2.4849,-2.4864,-2.4683,-2.4683,-2.4683,-2.4682,0,-2.4239,-2.4295,-2.4343,-2.4395,-2.443,-2.4493,-2.4503,-2.4539,-2.4535,-2.4547,-2.4625,-2.4655,-2.4709,-2.4732,-2.4729,-2.4825,-2.4811,-2.4788,-2.4743,-2.483,-2.4866,-2.488,-2.4688,-2.4687,-2.4686,-2.4685,0,0,-2.437,-2.4422,-2.4439,-2.4463,-2.4506,-2.4549,-2.4612,-2.4664,-2.4694,-2.4733,-2.4785,-2.4861,-2.4839,-2.4869,-2.4869,-2.4913,-2.5001,-2.4885,-2.4886,-2.4905,-2.5109,-2.5126,-2.5143,-2.4992,-2.4995,-2.4997,-2.5106,0,-2.4475,-2.4583,-2.4586,-2.4686,-2.4737,-2.472,-2.4774,-2.4807,-2.4821,-2.4867,-2.4882,-2.4935,-2.4903,-2.4921,-2.4964,-2.4982,-2.5042,-2.4974,-2.5041,-2.5043,-2.503,-2.5161,-2.5179,-2.528,-2.512,-2.5122,-2.5124,0,-2.4611,-2.4653,-2.4758,-2.4794,-2.4816,-2.4864,-2.4913,-2.4957,-2.4994,-2.5001,-2.5035,-2.5028,-2.5093,-2.5047,-2.5136,-2.509,-2.5117,-2.513,-2.5134,-2.514,-2.5088,-2.5169,-2.5312,-2.5327,-2.5146,-2.5145,-2.5143,0,-2.4695,-2.4778,-2.4851,-2.4872,-2.4916,-2.4951,-2.4971,-2.5005,-2.5036,-2.5079,-2.51,-2.515,-2.5177,-2.5216,-2.5224,-2.519,-2.5313,-2.5268,-2.532,-2.532,-2.5346,-2.5344,-2.5494,-2.5366,-2.5365,-2.5365,-2.5365,0,-2.4811,-2.4876,-2.4889,-2.4934,-2.5006,-2.5009,-2.5081,-2.5098,-2.5129,-2.5177,-2.5167,-2.5213,-2.522,-2.5268,-2.5275,-2.5347,-2.536,-2.5367,-2.5368,-2.5368,-2.5366,-2.5385,-2.5377,-2.5369,-2.5368,-2.5367,-2.5367,0,-2.4916,-2.4928,-2.5006,-2.5041,-2.5052,-2.5103,-2.5134,-2.5177,-2.519,-2.5251,-2.5266,-2.5286,-2.5342,-2.5354,-2.542,-2.5425,-2.551,-2.5505,-2.5497,-2.5496,-2.5548,-2.5542,-2.5714,-2.5736,-2.5595,-2.5596,-2.5597,0,-2.4988,-2.5037,-2.5078,-2.5109,-2.5131,-2.5182,-2.5214,-2.5219,-2.5253,-2.5299,-2.5337,-2.5392,-2.5435,-2.5526,-2.5547,-2.5597,-2.5592,-2.5649,-2.56,-2.5598,-2.5592,-2.5588,-2.5593,-2.5658,-2.5659,-2.5661,-2.5662,0,-2.5116,-2.5119,-2.5165,-2.5214,-2.5252,-2.529,-2.5327,-2.5354,-2.5364,-2.5403,-2.5459,-2.5493,-2.5561,-2.5615,-2.5666,-2.5688,-2.5677,-2.5677,-2.5692,-2.5691,-2.5684,-2.5688,-2.5522,-2.5673,-2.5672,-2.5671,-2.567,-2.567,-2.5206,-2.5248,-2.5284,-2.5335,-2.5364,-2.5398,-2.544,-2.5458,-2.5505,-2.556,-2.5561,-2.5623,-2.566,-2.5727,-2.5752,-2.5801,-2.5783,-2.5804,-2.5809,-2.5814,-2.5818,-2.5678,-2.581,-2.581,-2.581,-2.5809,-2.5809,0,-2.5331,-2.5353,-2.5401,-2.5452,-2.5493,-2.5479,-2.5519,-2.5555,-2.5609,-2.5644,-2.5687,-2.5752,-2.5805,-2.5831,-2.5883,-2.5917,-2.5914,-2.5931,-2.5928,-2.5933,-2.5832,-2.5813,-2.5933,-2.5933,-2.5933,-2.5933,-2.5933,-2.5933,-2.5401,-2.5473,-2.5481,-2.5566,-2.5588,-2.5648,-2.5672,-2.5704,-2.5732,-2.5805,-2.5849,-2.5865,-2.5896,-2.5951,-2.5999,-2.6005,-2.6024,-2.6044,-2.6047,-2.5952,-2.594,-2.5928,-2.591,-2.6048,-2.6048,-2.6144,-2.6145,-2.6146]},{"header":{"parameterUnit":"m.s-1","parameterCategory":1,"la1":30.2991,"la2":30.254,"lo1":-89.0895,"lo2":-89.0444,"dy":0.0017,"dx":0.0017,"nx":28,"ny":28,"refTime":"2025-03-09T03:00:00:Z","depth":0,"parameterNumber":3,"parameterNumberName":"V-component_of_WINDS"},"data":[0,0,0,0,0,0,0,0,0,0,0,0,0,0,0,0,0,0,0,0,0,0,0,0,0,0,0,0,0,0,0,0,0,0,0,0,0,0,0,0,0,0,0,0,0,0,0,0,0,0,0,0,0,0,0,0,0,0,0.0215,0.0215,0,0.0285,0.0286,0.0287,0.0304,0.0303,0.0303,0.0302,0.0377,0.0379,0.0381,0,0,0,0,0,0,0,0,0,0,0,0,0,0.0097,0.0099,0.0215,0.0215,0.0216,0.0285,0.0286,0.0287,0.0304,0.0303,0.0302,0.0302,0.0376,0.0379,0.0382,0,0,0,0,0,0,0,0,0,0,0,0,0,0.0156,0.01,0.0214,0.0233,0.0235,0.0285,0.0286,0.0287,0.0304,0.0303,0.0302,0.0302,0.0375,0.0378,0.0382,0.0419,0,0,0.0393,0.0395,0,0,0,0,0,0,0,0,0.0153,0.016,0.0229,0.0232,0.0234,0.0285,0.0272,0.0332,0.0304,0.0278,0.0302,0.0301,0.0347,0.0353,0.0368,0.0423,0.0426,0.0393,0.0396,0.0397,0.0398,0,0,0,0,0,0,0,0.0149,0.0157,0.0243,0.023,0.0233,0.0239,0.0246,0.0283,0.0316,0.028,0.0281,0.0289,0.0348,0.0364,0.0369,0.0427,0.0393,0.0397,0.0399,0.04,0.0519,0.052,0,0,0,0,0,0,0.0141,0.0154,0.024,0.0245,0.0191,0.0241,0.025,0.0269,0.0315,0.0321,0.029,0.029,0.0358,0.0365,0.0372,0.0421,0.0397,0.0401,0.0403,0.0518,0.0519,0.0521,0,0,0,0,0,0,0.0138,0.0148,0.0238,0.02,0.0211,0.0244,0.0266,0.0271,0.0287,0.0323,0.0329,0.03,0.0358,0.0367,0.0408,0.0424,0.0402,0.0406,0.0517,0.0519,0.052,0.0517,0,0,0,0,0,0,0.0135,0.0147,0.0161,0.02,0.0213,0.0271,0.0267,0.0273,0.0293,0.0294,0.0334,0.034,0.0358,0.0402,0.0412,0.0428,0.0408,0.0516,0.0518,0.052,0.0516,0.0518,0.052,0,0,0,0,0,0.0131,0.0157,0.0161,0.0172,0.0231,0.0272,0.028,0.0299,0.0294,0.0309,0.0332,0.0339,0.042,0.0406,0.0417,0.0435,0.0515,0.0517,0.0519,0.0515,0.0518,0.052,0,0,0,0,0,0,0.0119,0.0162,0.0168,0.0207,0.0236,0.0274,0.0293,0.0301,0.0332,0.0331,0.0355,0.0364,0.0404,0.0424,0.0407,0.0475,0.0468,0.0472,0.0461,0.0464,0.0466,0.0461,0.0411,0,0,0,0,0,0.0121,0.0149,0.0186,0.0218,0.0232,0.026,0.0279,0.0292,0.0322,0.0334,0.0361,0.0391,0.0424,0.0445,0.0476,0.0519,0.0529,0.0537,0.0539,0.054,0.0544,0.0571,0.0575,0.0528,0.0528,0.0528,0,0,0.0125,0.0152,0.0169,0.0216,0.024,0.0271,0.027,0.0302,0.0326,0.0339,0.038,0.04,0.0436,0.0478,0.0498,0.0496,0.056,0.0543,0.0544,0.0547,0.0574,0.0578,0.0582,0.0529,0.0529,0.0529,0,0,0.0149,0.0172,0.0202,0.0226,0.0262,0.0281,0.0288,0.0326,0.034,0.0381,0.0393,0.0422,0.0477,0.0503,0.0523,0.056,0.0568,0.0569,0.0581,0.0607,0.0611,0.0614,0.0629,0.0634,0.0573,0.0573,0.0573,0,0.015,0.0196,0.0216,0.0248,0.027,0.0284,0.0316,0.0338,0.0383,0.0398,0.0394,0.0465,0.049,0.054,0.0549,0.0564,0.0575,0.0565,0.0608,0.0612,0.0616,0.0631,0.0636,0.0573,0.0573,0.0573,0.0573,0,0.0197,0.0229,0.0249,0.0292,0.0316,0.0347,0.0374,0.0395,0.0407,0.0427,0.047,0.05,0.054,0.0553,0.0564,0.0605,0.0603,0.0603,0.0597,0.062,0.0635,0.064,0.0573,0.0573,0.0573,0.0573,0,0,0.0215,0.027,0.0277,0.0298,0.034,0.0365,0.0399,0.0437,0.0457,0.0487,0.0517,0.0565,0.0567,0.059,0.0604,0.0626,0.0657,0.0625,0.0626,0.0631,0.0707,0.0708,0.0714,0.0662,0.0663,0.0664,0.0705,0,0.0245,0.0305,0.0325,0.0375,0.0406,0.0421,0.0451,0.048,0.05,0.0531,0.0553,0.0587,0.0586,0.06,0.0623,0.0648,0.0672,0.0645,0.0692,0.0693,0.0684,0.0721,0.0721,0.0758,0.071,0.0711,0.0712,0,0.0288,0.0321,0.0373,0.0414,0.0428,0.0454,0.0492,0.052,0.0555,0.0569,0.0596,0.0609,0.0646,0.0637,0.0691,0.0672,0.0692,0.0708,0.071,0.0716,0.0705,0.073,0.077,0.0777,0.0721,0.072,0.0719,0,0.0299,0.0355,0.0395,0.0412,0.0459,0.0478,0.0498,0.0533,0.0555,0.0589,0.0605,0.0643,0.0664,0.0694,0.0718,0.0708,0.077,0.0762,0.0784,0.0784,0.0797,0.0796,0.0843,0.0807,0.0807,0.0807,0.0807,0,0.0331,0.0364,0.04,0.0425,0.0463,0.0486,0.0523,0.0545,0.0576,0.0606,0.0621,0.065,0.0679,0.0712,0.0731,0.0774,0.0783,0.0796,0.0801,0.0796,0.0795,0.0811,0.0809,0.0809,0.0808,0.0808,0.0808,0,0.0349,0.0375,0.0419,0.0461,0.0473,0.0499,0.0535,0.0561,0.0582,0.0621,0.0631,0.0665,0.0705,0.0732,0.0782,0.0795,0.0843,0.0846,0.0831,0.0834,0.0855,0.0853,0.0915,0.0926,0.0881,0.0881,0.0882,0,0.0369,0.0394,0.0439,0.0461,0.0482,0.0516,0.054,0.0565,0.0589,0.0633,0.0653,0.0694,0.0728,0.0792,0.0822,0.0861,0.0867,0.0886,0.0873,0.0868,0.087,0.0869,0.0873,0.0889,0.0889,0.0889,0.0889,0,0.0402,0.0414,0.0447,0.0486,0.0514,0.0546,0.0578,0.0595,0.0626,0.0653,0.0694,0.072,0.0773,0.0814,0.0857,0.088,0.0891,0.0893,0.0901,0.0896,0.0888,0.0895,0.0839,0.0892,0.0892,0.0891,0.0891,0.0891,0.0423,0.0448,0.0484,0.0521,0.0548,0.0578,0.0605,0.063,0.0665,0.071,0.0723,0.0766,0.0803,0.0862,0.0886,0.0921,0.092,0.093,0.0933,0.0936,0.0937,0.088,0.0929,0.0929,0.0929,0.0929,0.0929,0,0.0459,0.0484,0.0518,0.0563,0.0593,0.06,0.0636,0.0661,0.0699,0.0733,0.0766,0.0815,0.0856,0.089,0.0932,0.0955,0.0961,0.0965,0.0965,0.097,0.0935,0.0925,0.096,0.096,0.096,0.096,0.096,0.0959,0.0481,0.0524,0.0541,0.0598,0.0623,0.0665,0.0686,0.0715,0.0742,0.0795,0.0829,0.0851,0.0886,0.0931,0.097,0.0979,0.0995,0.0999,0.1009,0.0976,0.0972,0.0969,0.096,0.1001,0.1001,0.1042,0.1042,0.1043]}]]